TYVAK-61C (43144 NORAD) Tracking and Keplerian Element Data

This shows tracking and keplerian element data for the satellite.

Feedback or suggestion? Click here.




ElementValue
Catalog43144
NameTYVAK-61C
Epoch Orbit29024
Epoch Day85.22123821
Epoch Year2023
RAAN176.4572
Inclination97.3398
Eccentricity0.0005356
Argument of Perigee277.7431
Mean Anonmoly82.3232
Mean Motion15.85934151
Decay Rate0.00778848
L11 43144U 18004AK 23085.22123821 .00778848 00000+0 29284-2 0 9996
L22 43144 97.3398 176.4572 0005356 277.7431 82.3232 15.85934151290248



Live tracking and technical data element details for TYVAK-61C (NORAD 43144). TYVAK-61C can be tracked NOW for your location showing map with azimuth and elevation plus other details from your city location.







IsCatalogInMostPopularTable: catalog: 43144, numindb: 363
Update: records affected: 1



GetName: 43144 TYVAK-61C

Hit Count: updated at: Fri, 16 Jan 2026 02:48:01 GMT